Weather History for Sauk Centre, MN

Change the Weather History Date:

Thursday, August 8, 2013

  Actual Average (KGHW) Record (KGHW)
Temperature  
Mean Temperature 64 °F -  
Max Temperature 73 °F 80 °F 98 °F (1983)
Min Temperature 54 °F 59 °F 48 °F (1989)
Degree Days  
Heating Degree Days 2    
Growing Degree Days 14 (Base 50)    
Moisture  
Dew Point 56 °F    
Average Humidity 79    
Maximum Humidity 97    
Minimum Humidity 55    
Precipitation  
Precipitation 0.00 in - - ()
Sea Level Pressure  
Sea Level Pressure 30.03 in    
Wind  
Wind Speed 2 mph (WSW)    
Max Wind Speed 9 mph    
Max Gust Speed -    
Visibility 10 miles    
Events      
Averages and records for this station are not official NWS values.
T = Trace of Precipitation, MM = Missing Value Source: NWS Daily Summary

Daily Weather History Graph

Daily Weather History Graph

Search for Another Location

Airport:

Trip Planner

Search our weather history database for the weather conditions in past years. The results will help you decide how hot, cold, wet, or windy it might be!

Date:

Astronomy

Aug. 08, 2013 Rise Set
Actual Time 6:11 AM CDT 8:38 PM CDT
Civil Twilight 5:38 AM CDT 9:11 PM CDT
Nautical Twilight 4:56 AM CDT 9:52 PM CDT
Astronomical Twilight 4:09 AM CDT 10:39 PM CDT
Moon 8:08 AM CDT (8/8) 9:06 PM CDT (8/8)
Length of Visible Light 15h 32m
Length of Day
14h 26m
Waxing Crescent, 3% of the Moon is Illuminated
Aug 8
Waxing Crescent
Aug 14
First Quarter
Aug 20
Full
Aug 28
Last Quarter
Sep 5
New

Hourly Weather History & Observations

Time (CDT) Temp. Dew Point Humidity Pressure Visibility Wind Dir Wind Speed Gust Speed Precip Events Conditions
12:13 AM 56.1 °F 54.0 °F 92% 30.03 in 10.0 mi Calm Calm - N/A   Clear
12:33 AM 55.2 °F 53.6 °F 94% 30.03 in 10.0 mi Calm Calm - N/A   Clear
12:53 AM 56.1 °F 52.7 °F 88% 30.03 in 10.0 mi Calm Calm - N/A   Scattered Clouds
1:12 AM 55.6 °F 53.2 °F 92% 30.04 in 10.0 mi Calm Calm - N/A   Scattered Clouds
1:33 AM 55.0 °F 53.2 °F 94% 30.05 in 10.0 mi Calm Calm - N/A   Mostly Cloudy
1:53 AM 55.6 °F 54.0 °F 94% 30.04 in 10.0 mi Calm Calm - N/A   Overcast
2:12 AM 54.9 °F 53.6 °F 96% 30.04 in 10.0 mi Calm Calm - N/A   Scattered Clouds
2:33 AM 54.1 °F 53.2 °F 97% 30.03 in 10.0 mi Calm Calm - N/A   Scattered Clouds
2:53 AM 54.1 °F 53.1 °F 96% 30.04 in 10.0 mi Calm Calm - N/A   Clear
3:12 AM 55.0 °F 54.1 °F 97% 30.03 in 10.0 mi Calm Calm - N/A   Mostly Cloudy
3:33 AM 55.2 °F 54.1 °F 96% 30.02 in 10.0 mi Calm Calm - N/A   Overcast
3:53 AM 55.4 °F 54.5 °F 97% 30.02 in 10.0 mi Calm Calm - N/A   Mostly Cloudy
4:12 AM 55.2 °F 54.1 °F 96% 30.02 in 10.0 mi Calm Calm - N/A   Mostly Cloudy
4:33 AM 54.7 °F 53.8 °F 97% 30.02 in 10.0 mi Calm Calm - N/A   Mostly Cloudy
4:52 AM 54.9 °F 53.8 °F 96% 30.01 in 10.0 mi Calm Calm - N/A   Mostly Cloudy
5:13 AM 55.8 °F 54.1 °F 94% 30.01 in 10.0 mi Calm Calm - N/A   Overcast
5:33 AM 56.1 °F 54.5 °F 94% 30.01 in 10.0 mi Calm Calm - N/A   Overcast
5:52 AM 56.5 °F 54.7 °F 94% 30.01 in 10.0 mi Calm Calm - N/A   Overcast
6:13 AM 57.4 °F 55.2 °F 92% 30.01 in 10.0 mi Calm Calm - N/A   Overcast
6:33 AM 57.9 °F 55.2 °F 91% 30.02 in 10.0 mi Calm Calm - N/A   Overcast
6:53 AM 57.2 °F 55.9 °F 96% 30.02 in 10.0 mi Calm Calm - N/A   Overcast
7:13 AM 57.2 °F 55.9 °F 96% 30.02 in 10.0 mi Calm Calm - N/A   Overcast
7:32 AM 57.6 °F 55.9 °F 94% 30.03 in 10.0 mi Calm Calm - N/A   Overcast
7:53 AM 58.1 °F 56.3 °F 94% 30.04 in 10.0 mi Calm Calm - N/A   Overcast
8:32 AM 60.1 °F 55.9 °F 86% 30.04 in 10.0 mi Calm Calm - N/A   Overcast
8:53 AM 61.5 °F 56.1 °F 82% 30.05 in 10.0 mi SW 4.6 mph - N/A   Overcast
9:13 AM 62.6 °F 55.6 °F 78% 30.06 in 10.0 mi West 4.6 mph - N/A   Overcast
9:32 AM 62.8 °F 55.6 °F 77% 30.07 in 10.0 mi WSW 5.8 mph - N/A   Overcast
9:53 AM 63.1 °F 56.1 °F 78% 30.07 in 10.0 mi WSW 4.6 mph - N/A   Overcast
10:13 AM 63.5 °F 56.7 °F 78% 30.07 in 10.0 mi SW 9.2 mph - N/A   Overcast
10:32 AM 63.7 °F 56.3 °F 77% 30.07 in 10.0 mi SW 9.2 mph - N/A   Overcast
10:53 AM 64.8 °F 56.1 °F 74% 30.07 in 10.0 mi WSW 8.1 mph - N/A   Overcast
11:13 AM 66.6 °F 55.4 °F 67% 30.06 in 10.0 mi SSW 8.1 mph - N/A   Mostly Cloudy
11:32 AM 66.0 °F 55.0 °F 68% 30.06 in 10.0 mi SW 5.8 mph - N/A   Mostly Cloudy
11:53 AM 67.6 °F 54.9 °F 64% 30.06 in 10.0 mi SW 5.8 mph - N/A   Scattered Clouds
12:13 PM 68.2 °F 55.6 °F 64% 30.04 in 10.0 mi South 5.8 mph - N/A   Clear
12:32 PM 69.8 °F 55.9 °F 61% 30.05 in 10.0 mi WSW 5.8 mph - N/A   Mostly Cloudy
12:53 PM 69.1 °F 55.6 °F 62% 30.04 in 10.0 mi SSW 5.8 mph - N/A   Scattered Clouds
1:13 PM 68.7 °F 56.7 °F 65% 30.04 in 10.0 mi WSW 5.8 mph - N/A   Mostly Cloudy
1:32 PM 70.3 °F 57.4 °F 63% 30.04 in 10.0 mi WSW 4.6 mph - N/A   Mostly Cloudy
1:53 PM 68.9 °F 57.0 °F 66% 30.04 in 10.0 mi West 6.9 mph - N/A   Overcast
2:13 PM 69.6 °F 57.0 °F 64% 30.04 in 10.0 mi West 5.8 mph - N/A   Overcast
2:32 PM 70.0 °F 57.2 °F 64% 30.03 in 10.0 mi SW 4.6 mph - N/A   Overcast
2:53 PM 70.9 °F 57.6 °F 63% 30.03 in 10.0 mi WSW 8.1 mph - N/A   Mostly Cloudy
3:13 PM 71.1 °F 57.2 °F 61% 30.03 in 10.0 mi SW 3.5 mph - N/A   Overcast
3:32 PM 72.0 °F 57.4 °F 60% 30.02 in 10.0 mi West 5.8 mph - N/A   Overcast
3:53 PM 71.8 °F 57.0 °F 60% 30.02 in 10.0 mi West 6.9 mph - N/A   Overcast
4:12 PM 72.0 °F 56.7 °F 58% 30.01 in 10.0 mi SW 3.5 mph - N/A   Mostly Cloudy
4:33 PM 71.6 °F 56.8 °F 60% 30.01 in 10.0 mi Calm Calm - N/A   Overcast
4:53 PM 73.0 °F 56.7 °F 56% 30.00 in 10.0 mi WNW 6.9 mph - N/A   Overcast
5:12 PM 73.0 °F 56.1 °F 55% 30.00 in 10.0 mi West 5.8 mph - N/A   Scattered Clouds
5:33 PM 73.4 °F 56.7 °F 56% 30.01 in 10.0 mi West 6.9 mph - N/A   Scattered Clouds
5:53 PM 72.5 °F 57.7 °F 60% 30.01 in 10.0 mi North 8.1 mph - N/A   Mostly Cloudy
6:12 PM 70.9 °F 57.6 °F 63% 30.01 in 10.0 mi NNW 5.8 mph - N/A   Overcast
6:33 PM 71.2 °F 57.2 °F 61% 30.01 in 10.0 mi WNW 4.6 mph - N/A   Overcast
6:53 PM 71.1 °F 57.6 °F 62% 30.01 in 10.0 mi WNW 6.9 mph - N/A   Overcast
7:12 PM 71.8 °F 57.9 °F 62% 30.01 in 10.0 mi NW 6.9 mph - N/A   Overcast
7:33 PM 70.5 °F 57.4 °F 63% 30.00 in 10.0 mi WNW 6.9 mph - N/A   Mostly Cloudy
7:53 PM 69.8 °F 58.1 °F 66% 30.01 in 10.0 mi WNW 5.8 mph - N/A   Scattered Clouds
8:12 PM 68.5 °F 58.1 °F 69% 30.01 in 10.0 mi WNW 4.6 mph - N/A   Clear
8:33 PM 66.4 °F 57.6 °F 73% 30.00 in 10.0 mi WNW 3.5 mph - N/A   Clear
8:52 PM 65.7 °F 56.8 °F 73% 30.01 in 10.0 mi West 3.5 mph - N/A   Clear
9:13 PM 63.5 °F 58.1 °F 83% 30.01 in 10.0 mi Calm Calm - N/A   Clear
9:33 PM 62.6 °F 57.7 °F 84% 30.02 in 10.0 mi Calm Calm - N/A   Clear
9:52 PM 61.0 °F 57.7 °F 89% 30.02 in 10.0 mi Calm Calm - N/A   Clear
10:13 PM 60.8 °F 56.8 °F 87% 30.02 in 10.0 mi Calm Calm - N/A   Clear
10:33 PM 60.3 °F 56.7 °F 88% 30.02 in 10.0 mi Calm Calm - N/A   Clear
10:52 PM 59.0 °F 55.9 °F 90% 30.02 in 10.0 mi West 4.6 mph - N/A   Clear
11:13 PM 58.3 °F 55.8 °F 91% 30.02 in 10.0 mi WNW 3.5 mph - N/A   Clear
11:32 PM 58.5 °F 55.8 °F 91% 30.02 in 10.0 mi Calm Calm - N/A   Clear
11:53 PM 57.2 °F 55.4 °F 94% 30.03 in 10.0 mi Calm Calm - N/A   Clear